Ibiza, Spain

10:06 AM CEST en Junio 19, 2018 (GMT +0200)
Ibiza

Tiempo Historia de LEIB - Marzo, 2018

Change the Weather History Date:

Miércoles, Marzo 14, 2018

  Actual Average Record
Temperature  
Temperatura media 56 ° F -  
Temperatura máxima 62 ° F 63 ° F 69 ° F (2009)
Temperatura mínima 50 ° F 50 ° F 42 ° F (1998)
Degree Days  
Grados día de calefacción 9    
Growing Degree Days 6 (Base 50)    
Moisture  
Punto de rocío 55 ° F    
Average Humidity 88    
Maximum Humidity 97    
Minimum Humidity 68    
Precipitación  
Precipitación 0.00 pul 0.05 pul - ()
Presión al nivel del mar  
Presión al nivel del mar 29.85 pul    
Viento  
Velocidad del viento 7 mph ()    
Velocidad máxima del viento 16 mph    
Max Gust Speed -    
Visibilidad 5.0 Millas    
Eventos Niebla    
Averages and records for this station are not official NWS values.
T = Trace of Precipitation, MM = Missing Value Source: Averaged Metar Reports

Daily Weather History Graph

Daily Weather History Graph

Search for Another Location

Airport or City:

Astronomía

Mar. 14, 2018 Salida Puesta
Hora real 7:07 AM CET 7:00 PM CET
Crepúsculo civil 6:41 AM CET 7:26 PM CET
Crepúsculo náutico 6:10 AM CET 7:57 PM CET
Crepúsculo astronómico 5:39 AM CET 8:29 PM CET
Luna 5:32 AM CET (3/14) 4:06 PM CET (3/14)
Horas de luz 12h 45m
Horas de luz
11h 52m
Creciente menguante, 9% of the Moon is Illuminated
Mar 14
Creciente menguante
Mar 17
Nueva
Mar 24
Cuarto creciente
Mar 31
Luna llena
Abr 8
Cuarto menguante

Hourly Weather History & Observations

Hora (CET) Temp. Punto de rocío Humedad Presión Visibilidad Wind Dir Velocidad del viento Velocidad de ráfagas Precip Eventos Condiciones
12:00 AM 56 ° F 55 ° F 95% 30.00 pul - OSO 4.6 mph - -  
12:00 AM 57.2 ° F 55.4 ° F 94% 29.98 pul 5.6 mi OSO 2.3 mph - N/A   Nubes dispersas
1:00 AM 56 ° F 55 ° F 97% 30.00 pul 6 mi SO 6.9 mph - -   Nubes dispersas
2:00 AM 56 ° F 55 ° F 94% 29.99 pul - OSO 8.1 mph - -  
4:00 AM 55 ° F 54 ° F 97% 29.97 pul 5 mi OSO 5.8 mph - -   Neblina
5:30 AM 53.6 ° F 51.8 ° F 94% 29.95 pul - OSO 5.8 mph - N/A   Despejado
6:00 AM 53 ° F 51 ° F 92% 29.95 pul - OSO 5.8 mph - -  
6:00 AM 53.6 ° F 50.0 ° F 88% 29.95 pul - OSO 5.8 mph - N/A   Despejado
6:30 AM 51.8 ° F 50.0 ° F 94% 29.92 pul - Variable 3.5 mph - N/A   Despejado
7:00 AM 53.6 ° F 50.0 ° F 88% 29.92 pul - Variable 2.3 mph - N/A   Despejado
7:30 AM 50.0 ° F 48.2 ° F 94% 29.92 pul - Sin viento Sin viento - N/A   Despejado
8:00 AM 52 ° F 50 ° F 89% 29.94 pul - NNO 1.2 mph - -   Precipitación desconocida
8:00 AM 51.8 ° F 48.2 ° F 88% 29.92 pul - Sin viento Sin viento - N/A   Despejado
8:30 AM 57.2 ° F 51.8 ° F 82% 29.95 pul - Sin viento Sin viento - N/A   Despejado
9:00 AM 61 ° F 53 ° F 68% 29.96 pul - Sur 2.3 mph - -  
9:00 AM 59.0 ° F 53.6 ° F 82% 29.95 pul 6.2 mi Variable 1.2 mph - N/A   Parcialmente nublado
9:30 AM 60.8 ° F 53.6 ° F 77% 29.95 pul - SSO 5.8 mph - N/A   Despejado
10:00 AM 62 ° F 55 ° F 73% 29.96 pul 12 mi SSO 8.1 mph - -   Despejado
10:00 AM 62.6 ° F 55.4 ° F 77% 29.95 pul - SSO 6.9 mph - N/A   Despejado
10:30 AM 62.6 ° F 55.4 ° F 77% 29.95 pul - SSO 10.4 mph - N/A   Despejado
10:38 AM 60.8 ° F 57.2 ° F 88% 29.95 pul 0.5 mi SSO 11.5 mph - N/A   Nubes dispersas
10:49 AM 59.0 ° F 57.2 ° F 94% 29.95 pul 6.2 mi SSO 12.7 mph - N/A   Parcialmente nublado
11:00 AM 59.0 ° F 57.2 ° F 94% 29.95 pul 6.2 mi SSO 12.7 mph - N/A   Parcialmente nublado
11:30 AM 60.8 ° F 57.2 ° F 88% 29.95 pul 6.2 mi SSO 12.7 mph - N/A   Parcialmente nublado
12:00 PM 60 ° F 57 ° F 87% 29.94 pul - SSO 11.5 mph - -  
12:00 PM 60.8 ° F 57.2 ° F 88% 29.92 pul 6.2 mi SSO 11.5 mph - N/A   Nubes dispersas
12:30 PM 62.6 ° F 57.2 ° F 82% 29.92 pul 6.2 mi SSO 11.5 mph - N/A   Parcialmente nublado
1:00 PM 61 ° F 57 ° F 84% 29.91 pul 9 mi SSO 9.2 mph - -   Nubes dispersas
1:00 PM 60.8 ° F 57.2 ° F 88% 29.89 pul 6.2 mi SSO 8.1 mph - N/A   Parcialmente nublado
1:51 PM 60.8 ° F 57.2 ° F 88% 29.86 pul 1.2 mi SO 9.2 mph - N/A Niebla Bancos de niebla
2:00 PM 60.8 ° F 57.2 ° F 88% 29.86 pul 1.2 mi SO 9.2 mph - N/A Niebla Bancos de niebla
2:14 PM 60.8 ° F 55.4 ° F 82% 29.86 pul 3.1 mi SSE 9.2 mph - N/A Niebla Bancos de niebla
2:30 PM 60.8 ° F 57.2 ° F 88% 29.83 pul 3.1 mi Sur 10.4 mph - N/A Niebla Bancos de niebla
3:00 PM 61 ° F 57 ° F 82% 29.84 pul - Sur 11.5 mph - -  
3:00 PM 60.8 ° F 57.2 ° F 88% 29.83 pul 2.8 mi Sur 10.4 mph - N/A   Nubes dispersas
3:30 PM 59.0 ° F 55.4 ° F 88% 29.83 pul 2.8 mi SSO 12.7 mph - N/A   Nubes dispersas
4:00 PM 59 ° F 56 ° F 88% 29.80 pul 6 mi SSO 11.5 mph - -   Muy nublado
4:00 PM 59.0 ° F 57.2 ° F 94% 29.80 pul 2.8 mi SSO 11.5 mph - N/A   Muy nublado
4:30 PM 59.0 ° F 55.4 ° F 88% 29.77 pul 2.8 mi SSO 10.4 mph - N/A   Muy nublado
5:00 PM 59 ° F 56 ° F 87% 29.77 pul - SSO 13.8 mph - -  
5:00 PM 59.0 ° F 55.4 ° F 88% 29.77 pul 2.8 mi SSO 13.8 mph - N/A   Muy nublado
5:30 PM 59.0 ° F 55.4 ° F 88% 29.77 pul 5.0 mi SO 16.1 mph - N/A   Muy nublado
6:00 PM 59 ° F 56 ° F 88% 29.76 pul - SO 16.1 mph - -  
6:00 PM 59.0 ° F 55.4 ° F 88% 29.74 pul 5.0 mi SO 16.1 mph - N/A   Nublado
7:00 PM 59.0 ° F 55.4 ° F 88% 29.74 pul 5.0 mi SO 15.0 mph - N/A   Nublado
7:30 PM 59.0 ° F 55.4 ° F 88% 29.74 pul 5.0 mi SO 12.7 mph - N/A   Nublado
8:00 PM 59 ° F 56 ° F 88% 29.74 pul - SSO 15.0 mph - -  
8:00 PM 59.0 ° F 55.4 ° F 88% 29.74 pul 5.0 mi SSO 15.0 mph - N/A   Muy nublado
8:30 PM 59.0 ° F 55.4 ° F 88% 29.71 pul 5.0 mi SSO 15.0 mph - N/A   Muy nublado
9:00 PM 59 ° F 56 ° F 88% 29.72 pul - SSO 13.8 mph - -  
9:00 PM 59.0 ° F 57.2 ° F 94% 29.71 pul 5.0 mi SSO 13.8 mph - N/A   Nublado
9:30 PM 59.0 ° F 55.4 ° F 88% 29.68 pul 5.0 mi SSO 11.5 mph - N/A   Nublado
10:00 PM 59 ° F 56 ° F 86% 29.70 pul 6 mi SSO 12.7 mph - -   Nublado
10:00 PM 59.0 ° F 55.4 ° F 88% 29.68 pul 6.2 mi SSO 12.7 mph - N/A   Nubes dispersas
10:30 PM 59.0 ° F 55.4 ° F 88% 29.68 pul 6.2 mi SO 8.1 mph - N/A   Nubes dispersas
11:00 PM 59 ° F 56 ° F 85% 29.68 pul - SSO 9.2 mph - -  
11:00 PM 59.0 ° F 55.4 ° F 88% 29.68 pul 6.2 mi SSO 10.4 mph - N/A   Parcialmente nublado
11:30 PM 59.0 ° F 55.4 ° F 88% 29.65 pul 6.2 mi SO 10.4 mph - N/A   Parcialmente nublado